Wind_Speed
20 20 19 17 16 15 14 12 9 8 7 10 8 7 4 0 4 5 7 9 11 10 8 7 6 7 9 11 12 13 11 11 11 12 12 9 9 9 13 15 17 20 23
20 17 16 15 12 11 10 9 9 10 11 11 8 4 1 4 5 7 9 11 14 13 11 9 6 8 9 9 10 10 13 13 10 16 19 16 11 11 18 25 26 26 24
18 16 14 13 10 9 8 7 12 13 14 9 5 3 2 5 6 8 11 12 11 12 12 9 8 9 9 9 9 10 13 15 12 20 21 21 18 21 29 25 25 25 27
17 16 14 11 8 7 8 10 14 13 11 5 4 2 5 6 8 9 9 6 8 11 9 8 9 9 8 8 9 10 13 18 15 21 21 21 21 27 30 30 33 37 34
19 16 12 11 8 6 9 10 14 14 8 5 4 1 3 6 10 8 7 6 7 10 10 9 8 7 8 7 9 16 19 20 21 25 26 27 33 35 24 33 41 37 32
20 16 13 9 6 7 9 11 18 13 7 6 4 2 4 8 9 7 6 8 6 7 7 8 10 9 7 7 5 15 21 22 24 29 27 30 34 33 31 38 42 39 35
18 15 12 10 8 13 14 18 14 11 7 6 3 0 4 8 7 5 5 7 7 7 7 11 11 10 10 11 13 17 17 21 19 22 27 29 33 31 44 46 39 38 39
15 13 10 9 11 14 16 14 13 10 8 6 4 1 4 6 6 5 5 6 6 8 6 6 12 14 10 12 18 23 22 19 18 21 22 24 26 42 40 40 38 35 32
15 12 11 10 12 13 15 15 13 9 9 6 4 1 3 4 4 5 6 5 7 9 9 8 9 12 13 17 21 23 23 22 16 16 16 24 34 35 36 34 31 29 30
13 11 11 10 13 12 11 12 9 8 6 6 4 2 2 2 4 5 5 5 10 11 9 8 11 13 11 20 24 25 27 22 19 20 23 31 35 30 28 23 21 27 31
13 10 10 9 12 11 10 10 8 7 8 8 6 3 0 3 4 7 6 6 10 13 14 17 17 16 15 19 21 23 23 22 20 26 32 36 27 23 24 20 22 23 22
14 11 9 12 13 11 8 8 7 6 7 8 7 5 3 5 6 7 7 6 9 14 18 22 20 14 14 19 20 20 20 23 30 32 36 29 25 21 19 18 19 17 15
14 13 12 13 12 10 8 5 6 6 5 5 7 7 6 6 8 10 8 8 12 16 20 22 22 18 18 19 18 20 26 31 32 32 31 25 25 22 21 20 18 18 14
16 14 12 12 10 9 8 5 5 3 3 2 5 7 8 8 9 11 11 10 16 19 21 22 23 21 20 25 24 22 27 30 29 26 25 25 23 21 22 21 19 18 19
17 16 14 12 10 7 7 6 4 4 4 5 3 4 7 7 9 8 9 10 18 21 22 22 23 23 22 21 22 20 21 24 22 21 22 24 24 25 22 20 18 18 18
18 17 16 14 11 8 6 9 8 5 6 6 6 5 7 9 9 10 10 9 14 21 23 22 21 21 21 22 22 22 20 20 21 22 22 24 25 23 20 18 18 18 17
17 15 17 17 13 10 8 12 9 8 5 5 5 5 7 8 10 9 11 12 12 17 22 22 23 22 22 22 23 22 21 20 21 21 23 24 23 21 19 18 17 18 19
18 14 15 17 15 12 9 9 10 8 4 2 5 5 7 9 9 10 12 14 14 14 16 19 20 21 23 22 21 22 23 20 21 23 25 24 22 20 20 20 20 21 21
20 17 15 19 17 15 10 10 9 8 3 2 7 6 6 9 11 11 10 12 14 14 13 11 13 17 18 19 22 21 22 22 22 25 26 26 24 23 23 22 22 21 22
19 17 14 15 18 19 16 12 11 10 8 6 5 7 6 6 10 13 13 14 15 14 13 13 11 10 10 13 16 20 22 24 28 28 27 26 25 25 24 23 22 22 22
21 19 18 16 15 18 19 17 14 12 10 10 8 7 6 6 3 6 10 13 15 16 17 15 14 14 14 15 17 20 23 24 26 27 28 29 28 28 25 24 24 25 26
19 18 19 18 17 16 19 19 17 14 13 12 10 11 11 12 12 11 10 9 12 16 18 19 19 18 18 19 19 21 24 26 28 29 29 29 28 28 28 29 29 30 30
16 18 16 17 19 20 19 19 21 18 15 14 13 14 14 15 15 15 15 14 14 14 15 19 22 23 24 24 24 24 25 26 27 28 31 32 33 33 33 34 35 35 36
10 15 16 15 15 17 20 21 21 22 21 16 15 15 16 17 17 17 16 18 19 20 20 20 21 23 25 27 28 30 31 30 31 32 32 34 36 37 38 39 39 40 40
8 8 10 11 13 13 14 15 17 20 22 24 25 25 25 24 24 23 23 24 23 24 23 23 25 25 26 26 28 31 33 33 35 36 37 38 40 41 42 43 44 45 45
15 14 11 6 4 5 10 10 11 12 14 18 20 23 24 25 24 23 22 23 24 26 28 30 29 29 28 29 29 30 31 32 33 36 39 42 44 47 48 50 50 51 51
Wind_Direction
152 151 152 156 158 163 173 183 194 197 191 167 163 151 148 145 294 276 261 237 232 215 223 219 221 207 208 206 213 213 221 211 214 204 181 171 163 176 164 158 164 167 158
148 148 150 151 157 170 176 187 190 173 161 155 144 142 110 335 323 296 278 247 240 234 210 218 224 199 197 206 204 215 210 203 202 164 156 160 160 143 150 139 147 150 159
151 148 144 142 130 146 150 157 164 160 158 150 139 88 33 335 325 306 290 279 245 226 206 217 218 206 205 212 222 220 194 190 195 171 155 159 152 157 149 149 151 155 169
149 139 138 140 140 143 150 151 158 160 161 153 127 94 329 337 338 324 309 280 194 190 190 199 211 217 227 232 224 210 192 180 181 169 158 168 167 161 163 164 159 162 147
146 141 143 157 160 156 158 164 166 161 155 134 134 54 21 7 357 351 31 125 159 184 203 213 207 207 205 217 215 191 184 180 171 160 160 164 158 155 163 167 154 152 141
160 169 174 167 170 168 163 169 161 159 153 160 161 80 20 12 10 19 72 106 125 172 207 197 184 182 192 174 170 177 187 190 173 168 162 165 161 163 163 165 157 146 144
178 184 182 179 181 169 158 154 160 159 167 178 189 91 13 6 15 41 95 115 115 117 148 175 185 166 155 147 144 166 176 179 184 172 170 170 169 172 165 152 152 154 154
190 194 184 169 172 168 174 173 178 175 181 181 211 276 1 8 22 64 97 124 127 121 118 170 177 166 154 152 145 153 161 172 168 169 169 168 171 161 154 153 156 159 159
196 196 186 168 165 157 162 173 177 175 181 201 221 249 352 17 46 87 102 126 122 118 124 146 153 153 155 158 153 149 152 156 161 165 169 177 165 157 157 158 160 160 159
188 189 183 172 171 168 173 179 186 193 200 207 216 250 354 59 82 99 101 106 130 125 121 129 140 145 157 164 157 152 148 155 161 161 159 156 150 156 165 165 167 173 165
183 186 181 169 168 168 178 192 205 211 211 213 214 220 271 142 116 114 99 99 130 129 118 119 119 119 131 157 157 158 150 147 147 154 153 151 156 155 163 172 174 170 167
182 176 167 162 166 179 188 193 208 221 207 208 201 191 188 156 142 128 115 102 133 135 124 122 119 120 134 145 148 153 145 145 148 153 158 161 161 165 165 168 173 176 173
187 178 157 159 178 193 200 212 218 190 189 202 194 182 179 162 150 142 135 119 133 138 132 128 122 121 127 138 146 144 148 150 157 158 164 163 165 162 163 164 172 183 181
193 184 169 168 181 201 209 236 218 176 170 170 181 185 177 166 162 154 151 138 142 145 142 136 134 127 130 136 142 145 150 157 161 166 168 171 173 178 174 176 180 186 192
194 196 188 181 188 204 203 185 159 119 94 67 96 156 170 169 165 157 159 150 154 155 151 146 144 146 148 148 153 148 161 172 172 169 170 173 176 174 177 184 193 199 206
200 203 200 194 191 193 186 168 151 131 118 99 89 106 143 149 152 152 158 155 158 163 161 162 164 161 162 165 165 169 171 177 177 181 180 180 179 181 184 190 198 206 212
206 206 205 208 199 192 181 176 164 146 135 101 105 111 136 146 154 158 161 158 164 169 173 172 174 179 178 176 180 182 182 183 187 191 192 189 193 199 202 209 215 223 231
210 208 207 212 209 201 187 178 188 174 176 174 160 135 142 155 160 164 164 169 169 175 186 188 185 186 191 189 186 185 186 188 191 190 192 195 200 209 218 225 232 239 245
212 216 219 222 219 214 199 186 180 188 204 164 172 167 154 167 173 178 183 192 186 179 175 183 188 193 196 197 195 196 200 200 196 198 203 211 219 225 231 236 242 250 258
215 218 219 225 227 223 216 209 201 203 209 203 202 197 192 182 195 197 196 195 198 202 198 192 190 194 199 203 202 206 207 207 211 213 218 222 227 234 243 248 252 258 264
220 219 221 225 231 236 230 225 222 219 216 222 226 232 241 247 238 222 221 219 213 210 211 212 214 217 218 218 219 219 220 221 222 224 228 232 237 239 241 247 256 265 271
220 224 227 228 234 240 242 239 235 234 229 226 234 241 242 246 249 253 253 242 234 231 230 230 230 231 232 231 229 230 231 232 234 236 237 237 237 240 248 255 261 266 270
219 224 230 238 244 245 248 251 245 241 239 233 239 249 257 263 267 268 269 267 263 259 252 245 242 241 241 241 241 240 240 240 239 238 237 238 241 246 251 258 263 266 269
208 215 223 232 242 253 260 261 256 252 251 251 249 255 263 265 267 271 274 277 276 270 264 260 258 256 254 251 251 250 250 249 247 247 246 248 251 254 256 259 262 265 269
144 163 196 216 234 245 252 259 263 263 263 263 265 267 269 272 274 276 275 274 274 275 276 275 271 267 264 261 258 257 257 257 255 255 255 254 255 256 257 260 262 265 268
123 123 121 135 130 193 211 219 232 243 251 256 259 263 266 270 273 276 280 282 283 282 280 277 275 275 275 273 269 267 265 262 260 259 259 260 260 261 262 264 266 268 270
Height
1401 1405 1410 1414 1419 1424 1427 1430 1433 1435 1437 1439 1442 1444 1445 1446 1446 1446 1446 1446 1445 1446 1449 1451 1452 1453 1455 1458 1460 1463 1466 1469 1472 1475 1479 1482 1484 1485 1487 1491 1496 1501 1506
1404 1408 1412 1416 1421 1424 1427 1429 1432 1434 1437 1440 1442 1444 1444 1445 1444 1444 1443 1442 1442 1443 1446 1449 1450 1452 1454 1457 1459 1462 1464 1467 1471 1473 1478 1481 1485 1487 1490 1493 1498 1504 1509
1405 1409 1414 1418 1421 1424 1426 1428 1431 1434 1438 1441 1442 1443 1443 1443 1443 1441 1439 1437 1436 1441 1443 1446 1449 1451 1453 1455 1458 1460 1463 1466 1470 1473 1477 1481 1485 1489 1492 1498 1503 1508 1512
1407 1411 1415 1419 1422 1424 1427 1429 1432 1435 1438 1440 1442 1443 1443 1443 1441 1439 1436 1435 1436 1440 1443 1445 1447 1449 1452 1454 1455 1458 1461 1465 1469 1473 1478 1481 1485 1490 1495 1499 1504 1509 1514
1409 1413 1416 1419 1422 1424 1427 1429 1433 1436 1439 1441 1442 1443 1442 1442 1440 1438 1436 1435 1436 1438 1441 1443 1445 1448 1450 1451 1453 1455 1460 1464 1468 1472 1477 1481 1485 1490 1492 1499 1504 1511 1518
1410 1414 1417 1419 1422 1424 1426 1429 1433 1437 1439 1441 1442 1442 1442 1441 1440 1439 1437 1437 1437 1438 1440 1442 1444 1447 1448 1450 1451 1454 1459 1462 1466 1471 1477 1482 1484 1490 1496 1500 1506 1513 1520
1411 1414 1417 1419 1422 1424 1428 1431 1434 1437 1439 1441 1442 1442 1442 1441 1440 1439 1438 1438 1439 1439 1439 1441 1443 1446 1448 1450 1452 1456 1461 1465 1470 1472 1475 1481 1485 1490 1495 1502 1509 1515 1519
1412 1415 1418 1420 1423 1425 1429 1432 1435 1438 1440 1441 1442 1443 1443 1442 1440 1440 1439 1439 1440 1441 1441 1441 1443 1446 1449 1451 1454 1459 1464 1469 1473 1477 1481 1485 1489 1494 1500 1507 1512 1517 1524
1412 1415 1418 1421 1423 1426 1429 1432 1435 1438 1440 1441 1442 1443 1443 1442 1441 1441 1441 1441 1441 1442 1443 1444 1446 1448 1450 1454 1456 1461 1466 1472 1477 1481 1484 1488 1495 1501 1507 1512 1517 1522 1526
1413 1416 1419 1422 1424 1427 1430 1433 1436 1438 1439 1440 1442 1442 1443 1442 1442 1442 1442 1442 1443 1444 1444 1445 1446 1449 1451 1456 1460 1464 1469 1474 1478 1483 1488 1494 1502 1508 1513 1517 1521 1523 1526
1414 1417 1420 1422 1425 1428 1431 1434 1436 1437 1438 1440 1441 1442 1442 1443 1443 1443 1444 1444 1445 1446 1447 1448 1450 1452 1455 1459 1464 1468 1471 1476 1482 1487 1493 1499 1505 1511 1515 1520 1523 1528 1530
1415 1418 1421 1423 1426 1429 1432 1434 1435 1436 1437 1438 1439 1441 1442 1443 1444 1445 1445 1446 1447 1448 1450 1452 1455 1457 1460 1463 1468 1472 1475 1480 1485 1492 1497 1503 1508 1512 1517 1521 1526 1531 1534
1415 1419 1421 1424 1427 1430 1432 1433 1434 1435 1436 1438 1438 1440 1442 1443 1445 1446 1447 1448 1450 1452 1454 1456 1459 1462 1464 1468 1472 1475 1479 1484 1490 1496 1500 1505 1510 1515 1518 1523 1527 1531 1535
1415 1419 1422 1424 1427 1429 1432 1433 1435 1436 1437 1438 1438 1440 1442 1444 1446 1447 1449 1450 1452 1454 1457 1460 1463 1466 1470 1472 1476 1481 1485 1490 1494 1499 1503 1508 1512 1516 1520 1524 1527 1530 1533
1415 1419 1422 1424 1427 1430 1431 1433 1435 1437 1438 1439 1440 1441 1443 1444 1446 1448 1450 1452 1453 1457 1460 1463 1466 1469 1473 1478 1482 1486 1490 1494 1498 1501 1505 1509 1513 1517 1520 1524 1527 1529 1532
1414 1418 1422 1424 1427 1430 1431 1433 1435 1437 1439 1440 1441 1442 1443 1445 1448 1450 1452 1454 1456 1458 1462 1465 1468 1471 1475 1480 1484 1487 1491 1495 1499 1503 1507 1510 1513 1517 1520 1523 1526 1528 1530
1414 1417 1421 1424 1427 1430 1431 1434 1436 1438 1440 1441 1442 1443 1445 1446 1449 1451 1453 1455 1457 1460 1463 1466 1470 1473 1477 1480 1484 1488 1492 1496 1499 1503 1506 1509 1513 1516 1519 1522 1524 1526 1528
1413 1417 1420 1423 1426 1429 1432 1434 1437 1439 1441 1442 1443 1445 1446 1448 1450 1452 1454 1457 1459 1462 1464 1466 1469 1473 1477 1480 1484 1488 1492 1495 1498 1502 1505 1508 1511 1514 1517 1519 1521 1523 1524
1411 1415 1418 1422 1425 1428 1432 1434 1437 1439 1441 1442 1444 1446 1447 1449 1451 1453 1455 1458 1460 1462 1465 1467 1470 1473 1476 1479 1483 1487 1491 1494 1497 1500 1503 1506 1508 1511 1513 1516 1517 1519 1520
1409 1413 1416 1420 1423 1427 1430 1433 1436 1438 1441 1442 1444 1446 1448 1449 1451 1453 1455 1457 1460 1464 1466 1469 1471 1474 1477 1479 1482 1485 1488 1491 1494 1498 1500 1503 1506 1508 1509 1511 1512 1513 1514
1406 1410 1413 1417 1421 1424 1428 1431 1434 1437 1440 1442 1444 1446 1448 1450 1451 1453 1455 1457 1459 1462 1464 1467 1470 1472 1475 1478 1480 1483 1485 1488 1490 1493 1496 1499 1501 1502 1504 1506 1507 1508 1508
1404 1407 1410 1414 1418 1421 1425 1428 1432 1435 1438 1440 1442 1444 1446 1448 1450 1452 1454 1456 1458 1460 1463 1465 1467 1469 1471 1474 1476 1478 1480 1482 1485 1488 1490 1493 1494 1496 1498 1499 1500 1500 1500
1400 1404 1408 1411 1414 1417 1421 1425 1428 1432 1434 1437 1439 1441 1443 1445 1447 1448 1450 1452 1454 1456 1458 1460 1462 1464 1467 1469 1471 1472 1474 1476 1478 1481 1482 1484 1486 1487 1489 1489 1490 1490 1489
1396 1400 1404 1407 1410 1413 1417 1421 1424 1427 1431 1434 1436 1438 1440 1441 1443 1445 1446 1448 1449 1451 1453 1455 1456 1458 1460 1462 1463 1465 1466 1469 1471 1473 1475 1476 1477 1478 1479 1479 1478 1478 1478
1395 1399 1400 1403 1406 1409 1413 1416 1419 1422 1425 1428 1431 1433 1434 1436 1438 1440 1441 1443 1444 1445 1446 1448 1450 1451 1453 1454 1455 1456 1458 1460 1461 1463 1464 1466 1466 1467 1467 1467 1467 1467 1466
1398 1398 1399 1400 1402 1406 1409 1412 1414 1416 1419 1421 1422 1424 1426 1428 1430 1431 1433 1434 1435 1436 1438 1439 1441 1443 1444 1446 1447 1448 1449 1450 1451 1453 1454 1455 1454 1454 1453 1453 1453 1453 1453